Regional Weather Roundup
Issued by NWS Green Bay, WI

Home | Current Version | Previous Version | Text Only | Print | Product List | Glossary On
Versions: 1 2 3 4 5 6 7 8 9 10 11 12 13 14 15 16 17 18 19 20 21 22 23 24 25 26 27 28 29 30 31 32 33 34 35 36 37 38 39 40 41 42 43 44 45 46 47 48 49 50
000
ASUS43 KGRB 270800
RWRGRB

NORTH-CENTRAL AND NORTHEAST WISCONSIN REGIONAL WEATHER ROUNDUP
NATIONAL WEATHER SERVICE GREEN BAY WI
300 AM CDT TUE JUN 27 2017

WIZ005-009-010>012-018-019-270900-
NORTH CENTRAL WISCONSIN

CITY           SKY/WX    TMP DP  RH WIND       PRES   REMARKS
IRONWOOD       CLOUDY    54  47  77 SW5       30.03F
MANITOWISH WTR NOT AVBL
ARBOR VITAE    NOT AVBL
EAGLE RIVER    NOT AVBL
LAND O LAKES   MOCLDY    43  43 100 CALM      30.05R
RHINELANDER    PTCLDY    45  45 100 W7        30.05S
PHILLIPS       NOT AVBL
ANTIGO         NOT AVBL
TOMAHAWK       NOT AVBL
MERRILL        MOCLDY    41  41 100 CALM      30.07S
$$

WIZ013-073-270900-
NORTHEAST WISCONSIN

CITY           SKY/WX    TMP DP  RH WIND       PRES   REMARKS
IRON MOUNTAIN  CLOUDY    48  43  82 NW5       30.00S
MARINETTE      CLEAR     49  47  93 W3        30.02S
$$

WIZ017-030-035>037-045-270900-
CENTRAL WISCONSIN

CITY           SKY/WX    TMP DP  RH WIND       PRES   REMARKS
MEDFORD        NOT AVBL
WAUSAU         CLEAR     49  46  90 NW5       30.05S
MOSINEE        NOT AVBL
MARSHFIELD     CLOUDY    51  46  83 W8        30.07S
WISC RAPIDS    PTCLDY    50  46  86 W3        30.09S
STEVENS POINT  NOT AVBL
WAUPACA        CLEAR     52  49  89 W5        30.06S
SHAWANO        NOT AVBL
CLINTONVILLE   CLEAR     48  45  87 W6        30.05S
WAUTOMA        PTCLDY    47  45  93 CALM      30.08S
$$

WIZ038-039-048-051-270900-
FOX VALLEY

CITY           SKY/WX    TMP DP  RH WIND       PRES   REMARKS
NWS GREEN BAY  CLEAR     51  50  96 W8        30.04S
APPLETON       NOT AVBL
OSHKOSH        CLEAR     52  46  80 W6        30.06S
FOND DU LAC    CLEAR     51  45  79 W5        30.07S
$$

WIZ022-050-052-270900-
EAST CENTRAL WISCONSIN

CITY           SKY/WX    TMP DP  RH WIND       PRES   REMARKS
EPHRAIM        FAIR      54  49  86 W6        30.00S
WASHINGTON ISL NOT AVBL
STURGEON BAY     N/A     51  50  96 W6          N/A
MANITOWOC      NOT AVBL
SHEBOYGAN      CLEAR     49  48  97 W5        30.05F
$$

LMZ563-521-522-541>543-270900-
LAKESHORE

STATION/POSITION TIME  TEMP    WIND        PRES    VSBY  WAVE
                       AIR SEA DIR/SP/G                  HT/PER
                 (UTC) (F)     (DEG/KT/KT) (MB)    (MI)  (FT/S)
SHEBOYGAN LKSHOR 0700   54     260/  8/  9 1017.7F
KEWAUNEE LKSHORE 0730   52     300/  5/  6 1016.3F
NORTHPORT PIER   0740   56     260/  4/  7 1015.9S
N MID LAKE BUOY  0650   55 55  220/  6/  6 1016.3F         1
S GREEN BAY BUOY 0730   57     270/ 12/ 16 1016.3R
CHAMBERS ISLAND  0740   55     250/  2/  8 1015.9S
MENOMINEE LKSHOR 0730          260/  6/ 10 1015.5S
$$




USA.gov is the U.S. government's official web portal to all federal, state and local government web resources and services.